Location: *
(18.5200°S, 46.4500°E)
Time: 03:03:34
(UTC+00:00)

Meteor 1-11 - Pass Details

Date: 19 July 2019
Orbit: 840 x 888 km, 81.2° (Epoch: 21 August)

Event Time Altitude Azimuth Distance (km) Brightness Sun altitude
Rises 15:19:16 0° 179° (S) 3,436 7.2 -10.7°
Reaches altitude 10° 15:21:45 10° 174° (S) 2,502 6.4 -11.2°
Maximum altitude 15:27:17 54° 97° (E) 1,040 4.3 -12.5°
Drops below altitude 10° 15:32:51 10° 20° (NNE) 2,510 6.6 -13.7°
Sets 15:35:21 0° 16° (NNE) 3,448 7.4 -14.3°
